Time,TemperatureF,DewpointF,PressureIn,WindDirection,WindDirectionDegrees,WindSpeedMPH,WindSpeedGustMPH,Humidity,HourlyPrecipIn,Conditions,Clouds,dailyrainin,SoftwareType,DateUTC
2013-07-01 00:01:00,74.1,50.8,0.00,SE,141,0.0,0.0,44,0.00,,---,0.00,VWS V14.01,2013-07-01 04:01:00,
2013-07-01 00:03:00,74.3,51.0,0.00,SE,141,0.0,0.0,44,0.00,,---,0.35,VWS V14.01,2013-07-01 04:03:00,
2013-07-01 00:09:00,74.5,50.5,0.00,SE,141,0.0,0.0,43,0.00,,---,0.00,VWS V14.01,2013-07-01 04:09:00,
2013-07-01 00:12:00,74.5,50.5,0.00,SE,141,0.0,0.0,43,0.00,,---,0.00,VWS V14.01,2013-07-01 04:12:00,
2013-07-01 00:18:00,74.5,49.9,0.00,SSE,160,0.0,0.0,42,0.00,,---,0.00,VWS V14.01,2013-07-01 04:18:00,
2013-07-01 00:23:00,74.7,50.1,0.00,SSE,160,0.0,0.0,42,0.00,,---,0.00,VWS V14.01,2013-07-01 04:23:00,
2013-07-01 00:25:00,74.5,49.9,0.00,SSE,160,0.0,0.0,42,0.00,,---,0.00,VWS V14.01,2013-07-01 04:25:00,
2013-07-01 00:31:00,74.5,49.9,0.00,SSE,160,0.0,0.0,42,0.00,,---,0.00,VWS V14.01,2013-07-01 04:31:00,
2013-07-01 00:36:00,74.5,49.3,0.00,SSE,160,0.0,0.0,41,0.00,,---,0.00,VWS V14.01,2013-07-01 04:36:00,
2013-07-01 00:41:00,74.1,48.9,0.00,SSE,160,0.0,0.0,41,0.00,,---,0.00,VWS V14.01,2013-07-01 04:41:00,
2013-07-01 00:47:00,73.9,48.8,0.00,SSE,160,0.0,0.0,41,0.00,,---,0.00,VWS V14.01,2013-07-01 04:47:00,
2013-07-01 00:53:00,73.8,48.6,0.00,SSE,160,0.0,0.0,41,0.00,,---,0.00,VWS V14.01,2013-07-01 04:53:00,
2013-07-01 00:59:00,73.6,48.5,0.00,SSE,160,0.0,0.0,41,0.00,,---,0.00,VWS V14.01,2013-07-01 04:59:00,
2013-07-01 01:05:00,73.6,48.5,0.00,SSE,160,0.0,0.0,41,0.00,,---,0.00,VWS V14.01,2013-07-01 05:05:00,
2013-07-01 01:10:00,73.4,48.3,0.00,SSE,160,0.0,0.0,41,0.00,,---,0.00,VWS V14.01,2013-07-01 05:10:00,
2013-07-01 01:15:00,73.4,48.3,0.00,SSE,160,0.0,0.0,41,0.00,,---,0.00,VWS V14.01,2013-07-01 05:15:00,
2013-07-01 01:21:00,73.2,48.8,0.00,SSE,160,0.0,0.0,42,0.00,,---,0.00,VWS V14.01,2013-07-01 05:21:00,
2013-07-01 01:27:00,73.0,48.6,0.00,SSE,160,0.0,0.0,42,0.00,,---,0.00,VWS V14.01,2013-07-01 05:27:00,
2013-07-01 01:32:00,73.0,48.6,0.00,SSE,160,0.0,0.0,42,0.00,,---,0.00,VWS V14.01,2013-07-01 05:32:00,
2013-07-01 01:38:00,73.0,48.6,0.00,SSE,160,0.0,0.0,42,0.00,,---,0.00,VWS V14.01,2013-07-01 05:38:00,
2013-07-01 01:44:00,73.0,48.6,0.00,SSE,160,0.0,0.0,42,0.00,,---,0.00,VWS V14.01,2013-07-01 05:44:00,
2013-07-01 01:49:00,73.0,48.0,0.00,SSE,160,0.0,0.0,41,0.00,,---,0.00,VWS V14.01,2013-07-01 05:49:00,
2013-07-01 01:55:00,73.0,48.0,0.00,SSE,160,0.0,0.0,41,0.00,,---,0.00,VWS V14.01,2013-07-01 05:55:00,
2013-07-01 02:01:00,72.9,47.8,0.00,SSE,160,0.0,0.0,41,0.00,,---,0.00,VWS V14.01,2013-07-01 06:01:00,
2013-07-01 02:06:00,72.9,47.8,0.00,SSE,160,0.0,0.0,41,0.00,,---,0.00,VWS V14.01,2013-07-01 06:06:00,
2013-07-01 02:11:00,72.7,47.0,0.00,SSE,160,0.0,0.0,40,0.00,,---,0.00,VWS V14.01,2013-07-01 06:11:00,
2013-07-01 02:17:00,72.7,47.0,0.00,SSE,160,0.0,0.0,40,0.00,,---,0.00,VWS V14.01,2013-07-01 06:17:00,
2013-07-01 02:23:00,72.5,46.8,0.00,SSE,160,0.0,0.0,40,0.00,,---,0.00,VWS V14.01,2013-07-01 06:23:00,
2013-07-01 02:28:00,72.3,46.7,0.00,SSE,160,0.0,0.0,40,0.00,,---,0.00,VWS V14.01,2013-07-01 06:28:00,
2013-07-01 02:33:00,72.3,46.7,0.00,SSE,160,0.0,0.0,40,0.00,,---,0.00,VWS V14.01,2013-07-01 06:33:00,
2013-07-01 02:39:00,72.3,47.3,0.00,SSE,160,0.0,0.0,41,0.00,,---,0.00,VWS V14.01,2013-07-01 06:39:00,
2013-07-01 02:44:00,72.1,46.5,0.00,SSE,160,0.0,0.0,40,0.00,,---,0.00,VWS V14.01,2013-07-01 06:44:00,
2013-07-01 02:50:00,71.8,46.8,0.00,SSE,160,0.0,0.0,41,0.00,,---,0.00,VWS V14.01,2013-07-01 06:50:00,
2013-07-01 02:55:00,71.8,46.8,0.00,SSE,160,0.0,0.0,41,0.00,,---,0.00,VWS V14.01,2013-07-01 06:55:00,
2013-07-01 03:00:00,71.6,46.7,0.00,SSE,160,0.0,0.0,41,0.00,,---,0.00,VWS V14.01,2013-07-01 07:00:00,
2013-07-01 03:06:00,71.6,46.7,0.00,SSE,160,0.0,0.0,41,0.00,,---,0.00,VWS V14.01,2013-07-01 07:06:00,
2013-07-01 03:12:00,71.6,47.3,0.00,SSE,160,0.0,0.0,42,0.00,,---,0.00,VWS V14.01,2013-07-01 07:12:00,
2013-07-01 03:17:00,71.6,47.3,0.00,SSE,160,0.0,0.0,42,0.00,,---,0.00,VWS V14.01,2013-07-01 07:17:00,
2013-07-01 03:23:00,71.6,47.3,0.00,SSE,160,0.0,0.0,42,0.00,,---,0.00,VWS V14.01,2013-07-01 07:23:00,
2013-07-01 03:28:00,71.8,47.5,0.00,SSE,160,0.0,0.0,42,0.00,,---,0.00,VWS V14.01,2013-07-01 07:28:00,
2013-07-01 03:33:00,71.8,47.5,0.00,SSE,160,0.0,0.0,42,0.00,,---,0.00,VWS V14.01,2013-07-01 07:33:00,
2013-07-01 03:39:00,72.0,47.0,0.00,SSE,160,0.0,0.0,41,0.00,,---,0.00,VWS V14.01,2013-07-01 07:39:00,
2013-07-01 03:45:00,71.8,46.8,0.00,SSE,160,0.0,0.0,41,0.00,,---,0.00,VWS V14.01,2013-07-01 07:45:00,
2013-07-01 03:50:00,71.8,46.8,0.00,SSE,160,0.0,0.0,41,0.00,,---,0.00,VWS V14.01,2013-07-01 07:50:00,
2013-07-01 03:55:00,71.8,46.8,0.00,SSE,160,0.0,0.0,41,0.00,,---,0.00,VWS V14.01,2013-07-01 07:55:00,
2013-07-01 04:01:00,71.6,46.0,0.00,SSE,160,0.0,0.0,40,0.00,,---,0.00,VWS V14.01,2013-07-01 08:01:00,
2013-07-01 04:07:00,71.6,46.7,0.00,SSE,160,0.0,0.0,41,0.00,,---,0.00,VWS V14.01,2013-07-01 08:07:00,
2013-07-01 04:13:00,71.6,46.7,0.00,SSE,160,0.0,0.0,41,0.00,,---,0.00,VWS V14.01,2013-07-01 08:13:00,
2013-07-01 04:18:00,71.6,46.7,0.00,SSE,160,0.0,0.0,41,0.00,,---,0.00,VWS V14.01,2013-07-01 08:18:00,
2013-07-01 04:24:00,71.8,46.8,0.00,SSE,160,0.0,0.0,41,0.00,,---,0.00,VWS V14.01,2013-07-01 08:24:00,
2013-07-01 04:30:00,71.8,46.8,0.00,SSE,160,0.0,0.0,41,0.00,,---,0.00,VWS V14.01,2013-07-01 08:30:00,
2013-07-01 04:35:00,71.8,46.8,0.00,SSE,160,0.0,0.0,41,0.00,,---,0.00,VWS V14.01,2013-07-01 08:35:00,
2013-07-01 04:41:00,71.8,46.8,0.00,SSE,160,0.0,0.0,41,0.00,,---,0.00,VWS V14.01,2013-07-01 08:41:00,
2013-07-01 04:46:00,71.6,46.7,0.00,SSE,160,0.0,0.0,41,0.00,,---,0.00,VWS V14.01,2013-07-01 08:46:00,
2013-07-01 04:52:00,71.2,46.4,0.00,SSE,160,0.0,0.0,41,0.00,,---,0.00,VWS V14.01,2013-07-01 08:52:00,
2013-07-01 04:58:00,71.1,46.8,0.00,SSE,160,0.0,0.0,42,0.00,,---,0.00,VWS V14.01,2013-07-01 08:58:00,
2013-07-01 05:03:00,71.1,46.8,0.00,SSE,160,0.0,0.0,42,0.00,,---,0.00,VWS V14.01,2013-07-01 09:03:00,
2013-07-01 05:08:00,71.1,46.8,0.00,SSE,160,0.0,0.0,42,0.00,,---,0.00,VWS V14.01,2013-07-01 09:08:00,
2013-07-01 05:14:00,71.1,47.5,0.00,SSE,160,0.0,0.0,43,0.00,,---,0.00,VWS V14.01,2013-07-01 09:14:00,
2013-07-01 05:19:00,71.4,47.8,0.00,SSE,160,0.0,0.0,43,0.00,,---,0.00,VWS V14.01,2013-07-01 09:19:00,
2013-07-01 05:25:00,71.4,47.8,0.00,SSE,160,0.0,0.0,43,0.00,,---,0.00,VWS V14.01,2013-07-01 09:25:00,
2013-07-01 05:30:00,71.4,47.8,0.00,SSE,160,0.0,0.0,43,0.00,,---,0.00,VWS V14.01,2013-07-01 09:30:00,
2013-07-01 05:35:00,71.4,47.8,0.00,SSE,160,0.0,0.0,43,0.00,,---,0.00,VWS V14.01,2013-07-01 09:35:00,
2013-07-01 05:41:00,71.4,47.8,0.00,SSE,160,0.0,0.0,43,0.00,,---,0.00,VWS V14.01,2013-07-01 09:41:00,
2013-07-01 05:46:00,71.4,47.8,0.00,SSE,160,0.0,0.0,43,0.00,,---,0.00,VWS V14.01,2013-07-01 09:46:00,
2013-07-01 05:52:00,71.6,47.9,0.00,SSE,160,0.0,0.0,43,0.00,,---,0.00,VWS V14.01,2013-07-01 09:52:00,
2013-07-01 05:58:00,71.1,47.5,0.00,SSE,160,0.0,0.0,43,0.00,,---,0.00,VWS V14.01,2013-07-01 09:58:00,
2013-07-01 06:03:00,70.7,47.1,0.00,SSE,160,0.0,0.0,43,0.00,,---,0.00,VWS V14.01,2013-07-01 10:03:00,
2013-07-01 06:09:00,70.5,47.6,0.00,SSE,160,0.0,0.0,44,0.00,,---,0.00,VWS V14.01,2013-07-01 10:09:00,
2013-07-01 06:15:00,70.5,47.6,0.00,SSE,160,0.0,0.0,44,0.00,,---,0.00,VWS V14.01,2013-07-01 10:15:00,
2013-07-01 06:21:00,70.5,47.6,0.00,SSE,160,0.0,0.0,44,0.00,,---,0.00,VWS V14.01,2013-07-01 10:21:00,
2013-07-01 06:26:00,70.5,48.2,0.00,SSE,160,0.0,0.0,45,0.00,,---,0.00,VWS V14.01,2013-07-01 10:26:00,
2013-07-01 06:32:00,70.7,48.9,0.00,SSE,160,0.0,0.0,46,0.00,,---,0.00,VWS V14.01,2013-07-01 10:32:00,
2013-07-01 06:37:00,70.7,48.9,0.00,SSE,160,0.0,0.0,46,0.00,,---,0.00,VWS V14.01,2013-07-01 10:37:00,
2013-07-01 06:43:00,70.9,49.1,0.00,SSE,160,0.0,0.0,46,0.00,,---,0.00,VWS V14.01,2013-07-01 10:43:00,
2013-07-01 06:48:00,71.1,49.3,0.00,SSE,160,0.0,0.0,46,0.00,,---,0.00,VWS V14.01,2013-07-01 10:48:00,
2013-07-01 06:53:00,71.1,48.7,0.00,SSE,160,0.0,0.0,45,0.00,,---,0.00,VWS V14.01,2013-07-01 10:53:00,
2013-07-01 06:58:00,71.1,48.7,0.00,SSE,160,0.0,0.0,45,0.00,,---,0.00,VWS V14.01,2013-07-01 10:58:00,
2013-07-01 07:03:00,70.7,48.3,0.00,SSE,160,0.0,0.0,45,0.00,,---,0.00,VWS V14.01,2013-07-01 11:03:00,
2013-07-01 07:09:00,70.5,48.8,0.00,SSE,160,0.0,0.0,46,0.00,,---,0.00,VWS V14.01,2013-07-01 11:09:00,
2013-07-01 07:15:00,70.5,49.3,0.00,SSE,160,0.0,0.0,47,0.00,,---,0.00,VWS V14.01,2013-07-01 11:15:00,
2013-07-01 07:20:00,70.3,49.2,0.00,SSE,160,0.0,0.0,47,0.00,,---,0.00,VWS V14.01,2013-07-01 11:20:00,
2013-07-01 07:26:00,70.5,49.9,0.00,SSE,160,0.0,0.0,48,0.00,,---,0.00,VWS V14.01,2013-07-01 11:26:00,
2013-07-01 07:32:00,71.1,50.4,0.00,SSE,160,0.0,0.0,48,0.00,,---,0.00,VWS V14.01,2013-07-01 11:32:00,
2013-07-01 07:37:00,71.2,50.6,0.00,SSE,160,0.0,0.0,48,0.00,,---,0.00,VWS V14.01,2013-07-01 11:37:00,
2013-07-01 07:42:00,71.6,50.9,0.00,SSE,160,0.0,0.0,48,0.00,,---,0.00,VWS V14.01,2013-07-01 11:42:00,
2013-07-01 07:48:00,71.6,51.5,0.00,SSE,160,0.0,0.0,49,0.00,,---,0.00,VWS V14.01,2013-07-01 11:48:00,
2013-07-01 07:54:00,71.6,52.0,0.00,SE,146,0.0,0.0,50,0.00,,---,0.00,VWS V14.01,2013-07-01 11:54:00,
2013-07-01 08:00:00,72.1,52.5,0.00,SE,126,0.0,0.0,50,0.00,,---,0.00,VWS V14.01,2013-07-01 12:00:00,
2013-07-01 08:06:00,72.7,53.0,0.00,South,190,0.0,0.0,50,0.00,,---,0.00,VWS V14.01,2013-07-01 12:06:00,
2013-07-01 08:11:00,72.5,50.6,0.00,South,189,0.0,0.0,46,0.00,,---,0.00,VWS V14.01,2013-07-01 12:11:00,
2013-07-01 08:17:00,72.5,50.6,0.00,South,187,0.0,0.0,46,0.00,,---,0.00,VWS V14.01,2013-07-01 12:17:00,
2013-07-01 08:22:00,72.5,50.0,0.00,East,98,0.0,0.0,45,0.00,,---,0.00,VWS V14.01,2013-07-01 12:22:00,
2013-07-01 08:28:00,73.0,49.2,0.00,South,190,0.0,0.0,43,0.00,,---,0.00,VWS V14.01,2013-07-01 12:28:00,
2013-07-01 08:33:00,73.8,49.3,0.00,South,185,0.0,0.0,42,0.00,,---,0.00,VWS V14.01,2013-07-01 12:33:00,
2013-07-01 08:38:00,74.5,49.3,0.00,WSW,251,0.0,0.0,41,0.00,,---,0.00,VWS V14.01,2013-07-01 12:38:00,
2013-07-01 08:44:00,75.2,45.7,0.00,WSW,242,0.0,0.0,35,0.00,,---,0.00,VWS V14.01,2013-07-01 12:44:00,
2013-07-01 08:49:00,76.1,44.9,0.00,SSE,154,0.0,2.7,33,0.00,,---,0.00,VWS V14.01,2013-07-01 12:49:00,
2013-07-01 08:55:00,77.2,45.9,0.00,SSE,158,0.0,0.0,33,0.00,,---,0.00,VWS V14.01,2013-07-01 12:55:00,
2013-07-01 09:00:00,77.7,45.5,0.00,SSE,158,0.0,0.0,32,0.00,,---,0.00,VWS V14.01,2013-07-01 13:00:00,
2013-07-01 09:06:00,77.2,44.2,0.00,South,174,0.0,0.0,31,0.00,,---,0.00,VWS V14.01,2013-07-01 13:06:00,
2013-07-01 09:11:00,77.2,44.2,0.00,ESE,121,0.0,0.0,31,0.00,,---,0.00,VWS V14.01,2013-07-01 13:11:00,
2013-07-01 09:17:00,77.2,44.2,0.00,NNE,26,0.0,0.0,31,0.00,,---,0.00,VWS V14.01,2013-07-01 13:17:00,
2013-07-01 09:23:00,77.7,44.7,0.00,South,174,0.0,0.0,31,0.00,,---,0.00,VWS V14.01,2013-07-01 13:23:00,
2013-07-01 09:28:00,78.4,45.3,0.00,WNW,298,2.2,2.2,31,0.00,,---,0.00,VWS V14.01,2013-07-01 13:28:00,
2013-07-01 09:33:00,79.2,45.1,0.00,SSE,164,0.0,0.0,30,0.00,,---,0.00,VWS V14.01,2013-07-01 13:33:00,
2013-07-01 09:39:00,79.0,44.9,0.00,South,184,0.0,0.0,30,0.00,,---,0.00,VWS V14.01,2013-07-01 13:39:00,
2013-07-01 09:44:00,78.4,45.3,0.00,SSW,208,0.0,0.0,31,0.00,,---,0.00,VWS V14.01,2013-07-01 13:44:00,
2013-07-01 09:49:00,78.4,45.3,0.00,SSE,151,0.0,2.2,31,0.00,,---,0.00,VWS V14.01,2013-07-01 13:49:00,
2013-07-01 09:55:00,78.6,45.5,0.00,ESE,114,0.0,0.0,31,0.00,,---,0.00,VWS V14.01,2013-07-01 13:55:00,
2013-07-01 10:01:00,78.3,45.2,0.00,SE,136,0.0,0.0,31,0.00,,---,0.00,VWS V14.01,2013-07-01 14:01:00,
2013-07-01 10:06:00,78.3,45.2,0.00,SSE,164,2.7,2.7,31,0.00,,---,0.00,VWS V14.01,2013-07-01 14:06:00,
2013-07-01 10:12:00,78.6,45.5,0.00,SSE,155,0.0,0.0,31,0.00,,---,0.00,VWS V14.01,2013-07-01 14:12:00,
2013-07-01 10:17:00,78.6,45.5,0.00,SSE,156,0.0,0.0,31,0.00,,---,0.00,VWS V14.01,2013-07-01 14:17:00,
2013-07-01 10:23:00,78.8,44.8,0.00,South,177,0.0,0.0,30,0.00,,---,0.00,VWS V14.01,2013-07-01 14:23:00,
2013-07-01 10:28:00,79.7,45.6,0.00,ESE,123,0.0,0.0,30,0.00,,---,0.00,VWS V14.01,2013-07-01 14:28:00,
2013-07-01 10:33:00,80.6,46.3,0.00,South,179,2.2,2.2,30,0.00,,---,0.00,VWS V14.01,2013-07-01 14:33:00,
2013-07-01 10:38:00,80.4,46.2,0.00,SSW,208,0.0,2.2,30,0.00,,---,0.00,VWS V14.01,2013-07-01 14:38:00,
2013-07-01 10:44:00,79.5,45.4,0.00,East,91,0.0,0.0,30,0.00,,---,0.00,VWS V14.01,2013-07-01 14:44:00,
2013-07-01 10:50:00,78.8,44.8,0.00,SSE,156,0.0,0.0,30,0.00,,---,0.00,VWS V14.01,2013-07-01 14:50:00,
2013-07-01 10:55:00,77.9,44.9,0.00,SSE,150,0.0,0.0,31,0.00,,---,0.00,VWS V14.01,2013-07-01 14:55:00,
2013-07-01 11:01:00,77.4,44.4,0.00,SE,142,0.0,0.0,31,0.00,,---,0.00,VWS V14.01,2013-07-01 15:01:00,
2013-07-01 11:07:00,77.4,44.4,0.00,SE,142,0.0,0.0,31,0.00,,---,0.00,VWS V14.01,2013-07-01 15:07:00,
2013-07-01 11:13:00,77.4,44.4,0.00,SSE,160,0.0,0.0,31,0.00,,---,0.00,VWS V14.01,2013-07-01 15:13:00,
2013-07-01 11:18:00,77.5,44.5,0.00,ESE,122,0.0,0.0,31,0.00,,---,0.00,VWS V14.01,2013-07-01 15:18:00,
2013-07-01 11:24:00,77.9,44.9,0.00,NNW,344,0.0,0.0,31,0.00,,---,0.00,VWS V14.01,2013-07-01 15:24:00,
2013-07-01 11:30:00,78.1,45.0,0.00,ESE,120,0.0,0.0,31,0.00,,---,0.00,VWS V14.01,2013-07-01 15:30:00,
2013-07-01 11:36:00,78.1,45.0,0.00,SSE,150,0.0,2.2,31,0.00,,---,0.00,VWS V14.01,2013-07-01 15:36:00,
2013-07-01 11:41:00,77.9,44.9,0.00,ESE,117,0.0,0.0,31,0.00,,---,0.00,VWS V14.01,2013-07-01 15:41:00,
2013-07-01 11:47:00,78.1,45.0,0.00,SSE,166,0.0,3.1,31,0.00,,---,0.00,VWS V14.01,2013-07-01 15:47:00,
2013-07-01 11:52:00,77.7,44.7,0.00,North,1,0.0,0.0,31,0.00,,---,0.00,VWS V14.01,2013-07-01 15:52:00,
2013-07-01 11:58:00,77.5,44.5,0.00,SE,143,0.0,0.0,31,0.00,,---,0.00,VWS V14.01,2013-07-01 15:58:00,
2013-07-01 12:03:00,77.4,44.4,0.00,SE,141,0.0,2.2,31,0.00,,---,0.00,VWS V14.01,2013-07-01 16:03:00,
2013-07-01 12:09:00,77.4,44.4,0.00,SSE,162,0.0,0.0,31,0.00,,---,0.00,VWS V14.01,2013-07-01 16:09:00,
2013-07-01 12:15:00,77.2,44.2,0.00,SSE,167,0.0,0.0,31,0.00,,---,0.00,VWS V14.01,2013-07-01 16:15:00,
2013-07-01 12:20:00,76.8,43.9,0.00,SE,137,0.0,2.2,31,0.00,,---,0.00,VWS V14.01,2013-07-01 16:20:00,
2013-07-01 12:26:00,77.2,44.2,0.00,South,182,0.0,0.0,31,0.00,,---,0.00,VWS V14.01,2013-07-01 16:26:00,
2013-07-01 12:32:00,77.5,44.5,0.00,South,172,0.0,0.0,31,0.00,,---,0.00,VWS V14.01,2013-07-01 16:32:00,
2013-07-01 12:37:00,77.7,44.7,0.00,SE,135,0.0,0.0,31,0.00,,---,0.00,VWS V14.01,2013-07-01 16:37:00,
2013-07-01 12:42:00,77.9,44.9,0.00,South,175,0.0,0.0,31,0.00,,---,0.00,VWS V14.01,2013-07-01 16:42:00,
2013-07-01 12:47:00,77.9,44.9,0.00,East,83,0.0,2.2,31,0.00,,---,0.00,VWS V14.01,2013-07-01 16:47:00,
2013-07-01 12:53:00,77.5,44.5,0.00,South,184,2.2,2.2,31,0.00,,---,0.00,VWS V14.01,2013-07-01 16:53:00,
2013-07-01 12:58:00,77.5,44.5,0.00,SSE,159,0.0,0.0,31,0.00,,---,0.00,VWS V14.01,2013-07-01 16:58:00,
2013-07-01 13:03:00,77.9,44.9,0.00,SE,145,0.0,0.0,31,0.00,,---,0.00,VWS V14.01,2013-07-01 17:03:00,
2013-07-01 13:09:00,77.9,44.9,0.00,SE,125,0.0,2.2,31,0.00,,---,0.00,VWS V14.01,2013-07-01 17:09:00,
2013-07-01 13:14:00,77.5,44.5,0.00,East,79,0.0,0.0,31,0.00,,---,0.00,VWS V14.01,2013-07-01 17:14:00,
2013-07-01 13:19:00,77.9,44.9,0.00,East,84,0.0,0.0,31,0.00,,---,0.00,VWS V14.01,2013-07-01 17:19:00,
2013-07-01 13:25:00,78.4,45.3,0.00,SSE,149,0.0,0.0,31,0.00,,---,0.00,VWS V14.01,2013-07-01 17:25:00,
2013-07-01 13:31:00,79.2,45.1,0.00,SSE,160,2.2,3.1,30,0.00,,---,0.00,VWS V14.01,2013-07-01 17:31:00,
2013-07-01 13:36:00,79.7,45.6,0.00,SE,143,0.0,0.0,30,0.00,,---,0.00,VWS V14.01,2013-07-01 17:36:00,
2013-07-01 13:41:00,80.4,46.2,0.00,SW,221,0.0,0.0,30,0.00,,---,0.00,VWS V14.01,2013-07-01 17:41:00,
2013-07-01 13:47:00,81.3,47.0,0.00,South,176,3.6,3.6,30,0.00,,---,0.00,VWS V14.01,2013-07-01 17:47:00,
2013-07-01 13:52:00,81.7,47.3,0.00,SSE,168,2.2,2.2,30,0.00,,---,0.00,VWS V14.01,2013-07-01 17:52:00,
2013-07-01 13:59:00,82.2,47.7,0.00,SSE,161,0.0,0.0,30,0.00,,---,0.00,VWS V14.01,2013-07-01 17:59:00,
2013-07-01 14:04:00,82.6,47.1,0.00,SSE,161,0.0,0.0,29,0.00,,---,0.00,VWS V14.01,2013-07-01 18:04:00,
2013-07-01 14:09:00,82.0,47.6,0.00,South,174,0.0,0.0,30,0.00,,---,0.00,VWS V14.01,2013-07-01 18:09:00,
2013-07-01 14:14:00,82.0,47.6,0.00,South,172,0.0,0.0,30,0.00,,---,0.00,VWS V14.01,2013-07-01 18:14:00,
2013-07-01 14:20:00,82.2,47.7,0.00,NW,315,0.0,0.0,30,0.00,,---,0.00,VWS V14.01,2013-07-01 18:20:00,
2013-07-01 14:25:00,82.8,47.3,0.00,SE,135,0.0,0.0,29,0.00,,---,0.00,VWS V14.01,2013-07-01 18:25:00,
2013-07-01 14:31:00,82.9,47.5,0.00,SE,143,0.0,0.0,29,0.00,,---,0.00,VWS V14.01,2013-07-01 18:31:00,
2013-07-01 14:36:00,82.2,47.7,0.00,SSW,198,0.0,0.0,30,0.00,,---,0.00,VWS V14.01,2013-07-01 18:36:00,
2013-07-01 14:41:00,81.7,47.3,0.00,South,171,0.0,0.0,30,0.00,,---,0.00,VWS V14.01,2013-07-01 18:41:00,
2013-07-01 14:46:00,81.5,47.1,0.00,SE,146,2.2,2.2,30,0.00,,---,0.00,VWS V14.01,2013-07-01 18:46:00,
2013-07-01 14:51:00,81.3,47.0,0.00,SSE,159,0.0,0.0,30,0.00,,---,0.00,VWS V14.01,2013-07-01 18:51:00,
2013-07-01 14:57:00,81.5,47.1,0.00,SSE,159,2.2,2.7,30,0.00,,---,0.00,VWS V14.01,2013-07-01 18:57:00,
2013-07-01 15:02:00,81.9,47.4,0.00,SSE,157,2.7,2.7,30,0.00,,---,0.00,VWS V14.01,2013-07-01 19:02:00,
2013-07-01 15:09:00,81.5,47.1,0.00,SSE,154,0.0,0.0,30,0.00,,---,0.00,VWS V14.01,2013-07-01 19:09:00,
2013-07-01 15:14:00,81.9,47.4,0.00,SSE,166,2.7,2.7,30,0.00,,---,0.00,VWS V14.01,2013-07-01 19:14:00,
2013-07-01 15:19:00,82.4,47.0,0.00,NNW,340,0.0,0.0,29,0.00,,---,0.00,VWS V14.01,2013-07-01 19:19:00,
2013-07-01 15:24:00,82.9,47.5,0.00,SSE,149,0.0,0.0,29,0.00,,---,0.00,VWS V14.01,2013-07-01 19:24:00,
2013-07-01 15:30:00,83.5,47.9,0.00,North,6,0.0,0.0,29,0.00,,---,0.00,VWS V14.01,2013-07-01 19:30:00,
2013-07-01 15:35:00,83.8,48.2,0.00,SSE,159,0.0,0.0,29,0.00,,---,0.00,VWS V14.01,2013-07-01 19:35:00,
2013-07-01 15:41:00,83.8,48.2,0.00,South,182,0.0,0.0,29,0.00,,---,0.00,VWS V14.01,2013-07-01 19:41:00,
2013-07-01 15:47:00,83.5,47.9,0.00,South,185,0.0,0.0,29,0.00,,---,0.00,VWS V14.01,2013-07-01 19:47:00,
2013-07-01 15:52:00,83.5,47.9,0.00,ESE,115,2.7,4.0,29,0.00,,---,0.00,VWS V14.01,2013-07-01 19:52:00,
2013-07-01 15:57:00,83.1,47.6,0.00,SSW,192,0.0,2.7,29,0.00,,---,0.00,VWS V14.01,2013-07-01 19:57:00,
2013-07-01 16:02:00,83.5,47.9,0.00,SE,140,0.0,3.6,29,0.00,,---,0.00,VWS V14.01,2013-07-01 20:02:00,
2013-07-01 16:07:00,83.8,48.2,0.00,SE,130,0.0,2.2,29,0.00,,---,0.00,VWS V14.01,2013-07-01 20:07:00,
2013-07-01 16:13:00,83.8,48.2,0.00,SE,128,0.0,2.7,29,0.00,,---,0.00,VWS V14.01,2013-07-01 20:13:00,
2013-07-01 16:18:00,83.8,48.2,0.00,ENE,78,0.0,0.0,29,0.00,,---,0.00,VWS V14.01,2013-07-01 20:18:00,
2013-07-01 16:23:00,84.2,48.5,0.00,SSE,148,0.0,0.0,29,0.00,,---,0.00,VWS V14.01,2013-07-01 20:23:00,
2013-07-01 16:29:00,84.7,49.0,0.00,SSE,167,0.0,0.0,29,0.00,,---,0.00,VWS V14.01,2013-07-01 20:29:00,
2013-07-01 16:34:00,84.2,48.5,0.00,South,173,0.0,0.0,29,0.00,,---,0.00,VWS V14.01,2013-07-01 20:34:00,
2013-07-01 16:40:00,83.3,47.8,0.00,NW,316,0.0,0.0,29,0.00,,---,0.00,VWS V14.01,2013-07-01 20:40:00,
2013-07-01 16:45:00,82.9,47.5,0.00,SE,136,3.1,3.1,29,0.00,,---,0.00,VWS V14.01,2013-07-01 20:45:00,
2013-07-01 16:51:00,82.8,47.3,0.00,SE,144,0.0,0.0,29,0.00,,---,0.00,VWS V14.01,2013-07-01 20:51:00,
2013-07-01 16:57:00,82.8,47.3,0.00,South,169,0.0,0.0,29,0.00,,---,0.00,VWS V14.01,2013-07-01 20:57:00,
2013-07-01 17:02:00,82.9,47.5,0.00,SSE,156,2.7,2.7,29,0.00,,---,0.00,VWS V14.01,2013-07-01 21:02:00,
2013-07-01 17:08:00,83.1,47.6,0.00,South,170,0.0,0.0,29,0.00,,---,0.00,VWS V14.01,2013-07-01 21:08:00,
2013-07-01 17:14:00,83.1,47.6,0.00,South,170,0.0,0.0,29,0.00,,---,0.00,VWS V14.01,2013-07-01 21:14:00,
2013-07-01 17:19:00,83.3,47.8,0.00,South,173,0.0,2.7,29,0.00,,---,0.00,VWS V14.01,2013-07-01 21:19:00,
2013-07-01 17:24:00,83.5,47.9,0.00,SE,142,2.2,4.9,29,0.00,,---,0.00,VWS V14.01,2013-07-01 21:24:00,
2013-07-01 17:30:00,83.5,47.9,0.00,SSE,155,2.2,2.7,29,0.00,,---,0.00,VWS V14.01,2013-07-01 21:30:00,
2013-07-01 17:35:00,83.1,47.6,0.00,SE,146,2.2,2.2,29,0.00,,---,0.00,VWS V14.01,2013-07-01 21:35:00,
2013-07-01 17:40:00,82.8,47.3,0.00,SSE,149,0.0,2.2,29,0.00,,---,0.00,VWS V14.01,2013-07-01 21:40:00,
2013-07-01 17:45:00,82.2,47.7,0.00,SSE,162,0.0,0.0,30,0.00,,---,0.00,VWS V14.01,2013-07-01 21:45:00,
2013-07-01 17:51:00,81.9,47.4,0.00,ESE,122,0.0,0.0,30,0.00,,---,0.00,VWS V14.01,2013-07-01 21:51:00,
2013-07-01 17:56:00,81.9,47.4,0.00,SSE,158,0.0,2.2,30,0.00,,---,0.00,VWS V14.01,2013-07-01 21:56:00,
2013-07-01 18:02:00,82.0,47.6,0.00,SE,146,0.0,0.0,30,0.00,,---,0.00,VWS V14.01,2013-07-01 22:02:00,
2013-07-01 18:08:00,81.7,47.3,0.00,SSE,154,0.0,3.6,30,0.00,,---,0.00,VWS V14.01,2013-07-01 22:08:00,
2013-07-01 18:14:00,81.5,47.1,0.00,South,171,0.0,0.0,30,0.00,,---,0.00,VWS V14.01,2013-07-01 22:14:00,
2013-07-01 18:19:00,81.0,46.6,0.00,SSE,158,2.2,3.6,30,0.00,,---,0.00,VWS V14.01,2013-07-01 22:19:00,
2013-07-01 18:25:00,80.4,46.2,0.00,ESE,105,2.2,2.2,30,0.00,,---,0.00,VWS V14.01,2013-07-01 22:25:00,
2013-07-01 18:30:00,80.1,45.9,0.00,SE,143,0.0,0.0,30,0.00,,---,0.00,VWS V14.01,2013-07-01 22:30:00,
2013-07-01 18:36:00,80.1,45.9,0.00,SSW,206,0.0,0.0,30,0.00,,---,0.00,VWS V14.01,2013-07-01 22:36:00,
2013-07-01 18:41:00,80.2,46.0,0.00,SE,134,0.0,0.0,30,0.00,,---,0.00,VWS V14.01,2013-07-01 22:41:00,
2013-07-01 18:46:00,80.2,46.0,0.00,SSE,165,0.0,0.0,30,0.00,,---,0.00,VWS V14.01,2013-07-01 22:46:00,
2013-07-01 18:51:00,80.1,45.9,0.00,SSE,148,0.0,0.0,30,0.00,,---,0.00,VWS V14.01,2013-07-01 22:51:00,
2013-07-01 18:57:00,79.7,45.6,0.00,SW,233,0.0,0.0,30,0.00,,---,0.00,VWS V14.01,2013-07-01 22:57:00,
2013-07-01 19:02:00,79.5,45.4,0.00,North,353,0.0,0.0,30,0.00,,---,0.00,VWS V14.01,2013-07-01 23:02:00,
2013-07-01 19:07:00,79.5,45.4,0.00,South,170,0.0,0.0,30,0.00,,---,0.00,VWS V14.01,2013-07-01 23:07:00,
2013-07-01 19:12:00,79.5,45.4,0.00,SE,144,0.0,2.7,30,0.00,,---,0.00,VWS V14.01,2013-07-01 23:12:00,
2013-07-01 19:17:00,79.5,45.4,0.00,SE,138,0.0,0.0,30,0.00,,---,0.00,VWS V14.01,2013-07-01 23:17:00,
2013-07-01 19:23:00,79.3,45.2,0.00,SE,144,0.0,0.0,30,0.00,,---,0.00,VWS V14.01,2013-07-01 23:23:00,
2013-07-01 19:28:00,79.2,45.1,0.00,NE,38,0.0,0.0,30,0.00,,---,0.00,VWS V14.01,2013-07-01 23:28:00,
2013-07-01 19:33:00,79.0,44.9,0.00,East,100,0.0,0.0,30,0.00,,---,0.00,VWS V14.01,2013-07-01 23:33:00,
2013-07-01 19:38:00,79.0,44.9,0.00,SSE,148,0.0,0.0,30,0.00,,---,0.00,VWS V14.01,2013-07-01 23:38:00,
2013-07-01 19:44:00,78.8,44.8,0.00,ESE,119,0.0,0.0,30,0.00,,---,0.00,VWS V14.01,2013-07-01 23:44:00,
2013-07-01 19:50:00,78.8,44.8,0.00,SSE,152,0.0,0.0,30,0.00,,---,0.00,VWS V14.01,2013-07-01 23:50:00,
2013-07-01 19:56:00,78.6,45.5,0.00,South,184,2.7,3.1,31,0.00,,---,0.00,VWS V14.01,2013-07-01 23:56:00,
2013-07-01 20:01:00,78.6,45.5,0.00,SSE,151,0.0,0.0,31,0.00,,---,0.00,VWS V14.01,2013-07-02 00:01:00,
2013-07-01 20:07:00,78.4,45.3,0.00,SSE,151,0.0,0.0,31,0.00,,---,0.00,VWS V14.01,2013-07-02 00:07:00,
2013-07-01 20:12:00,78.3,45.2,0.00,East,98,0.0,0.0,31,0.00,,---,0.00,VWS V14.01,2013-07-02 00:12:00,
2013-07-01 20:18:00,77.9,44.9,0.00,NNW,334,0.0,0.0,31,0.00,,---,0.00,VWS V14.01,2013-07-02 00:18:00,
2013-07-01 20:24:00,77.5,44.5,0.00,ESE,123,0.0,0.0,31,0.00,,---,0.00,VWS V14.01,2013-07-02 00:24:00,
2013-07-01 20:29:00,77.4,44.4,0.00,ESE,123,0.0,0.0,31,0.00,,---,0.00,VWS V14.01,2013-07-02 00:29:00,
2013-07-01 20:34:00,77.0,44.1,0.00,ESE,123,0.0,0.0,31,0.00,,---,0.00,VWS V14.01,2013-07-02 00:34:00,
2013-07-01 20:40:00,76.8,43.9,0.00,NNW,335,0.0,0.0,31,0.00,,---,0.00,VWS V14.01,2013-07-02 00:40:00,
2013-07-01 20:45:00,76.6,43.8,0.00,SSE,154,0.0,0.0,31,0.00,,---,0.00,VWS V14.01,2013-07-02 00:45:00,
2013-07-01 20:51:00,76.3,43.5,0.00,SSE,154,0.0,0.0,31,0.00,,---,0.00,VWS V14.01,2013-07-02 00:51:00,
2013-07-01 20:57:00,75.9,43.1,0.00,SE,130,0.0,0.0,31,0.00,,---,0.00,VWS V14.01,2013-07-02 00:57:00,
2013-07-01 21:02:00,75.4,42.7,0.00,SE,130,0.0,0.0,31,0.00,,---,0.00,VWS V14.01,2013-07-02 01:02:00,
2013-07-01 21:08:00,75.0,43.2,0.00,SE,130,0.0,0.0,32,0.00,,---,0.00,VWS V14.01,2013-07-02 01:08:00,
2013-07-01 21:13:00,75.0,43.2,0.00,SE,130,0.0,0.0,32,0.00,,---,0.00,VWS V14.01,2013-07-02 01:13:00,
2013-07-01 21:18:00,75.0,43.2,0.00,SE,130,0.0,0.0,32,0.00,,---,0.00,VWS V14.01,2013-07-02 01:18:00,
2013-07-01 21:24:00,75.0,43.2,0.00,SE,130,0.0,0.0,32,0.00,,---,0.00,VWS V14.01,2013-07-02 01:24:00,
2013-07-01 21:29:00,75.0,43.2,0.00,SE,130,0.0,0.0,32,0.00,,---,0.00,VWS V14.01,2013-07-02 01:29:00,
2013-07-01 21:35:00,74.8,43.0,0.00,SE,130,0.0,0.0,32,0.00,,---,0.00,VWS V14.01,2013-07-02 01:35:00,
2013-07-01 21:41:00,74.7,42.9,0.00,SE,130,0.0,0.0,32,0.00,,---,0.00,VWS V14.01,2013-07-02 01:41:00,
2013-07-01 21:46:00,74.3,42.6,0.00,SE,130,0.0,0.0,32,0.00,,---,0.00,VWS V14.01,2013-07-02 01:46:00,
2013-07-01 21:51:00,74.1,42.4,0.00,SE,130,0.0,0.0,32,0.00,,---,0.00,VWS V14.01,2013-07-02 01:51:00,
2013-07-01 21:57:00,73.9,42.2,0.00,SE,130,0.0,0.0,32,0.00,,---,0.00,VWS V14.01,2013-07-02 01:57:00,
2013-07-01 22:02:00,73.9,43.0,0.00,SE,130,0.0,0.0,33,0.00,,---,0.00,VWS V14.01,2013-07-02 02:02:00,
2013-07-01 22:08:00,74.1,43.2,0.00,SE,130,0.0,0.0,33,0.00,,---,0.00,VWS V14.01,2013-07-02 02:08:00,
2013-07-01 22:14:00,74.5,44.3,0.00,SE,133,0.0,0.0,34,0.00,,---,0.00,VWS V14.01,2013-07-02 02:14:00,
2013-07-01 22:20:00,74.5,43.5,0.00,SE,133,0.0,0.0,33,0.00,,---,0.00,VWS V14.01,2013-07-02 02:20:00,
2013-07-01 22:25:00,74.1,43.2,0.00,SE,133,0.0,0.0,33,0.00,,---,0.00,VWS V14.01,2013-07-02 02:25:00,
2013-07-01 22:31:00,74.3,44.1,0.00,ESE,111,0.0,0.0,34,0.00,,---,0.00,VWS V14.01,2013-07-02 02:31:00,
2013-07-01 22:36:00,74.5,45.1,0.00,SE,141,0.0,0.0,35,0.00,,---,0.00,VWS V14.01,2013-07-02 02:36:00,
2013-07-01 22:41:00,74.5,45.1,0.00,SE,141,0.0,0.0,35,0.00,,---,0.00,VWS V14.01,2013-07-02 02:41:00,
2013-07-01 22:47:00,74.5,44.3,0.00,SE,141,0.0,0.0,34,0.00,,---,0.00,VWS V14.01,2013-07-02 02:47:00,
2013-07-01 22:52:00,74.5,44.3,0.00,SE,141,0.0,0.0,34,0.00,,---,0.00,VWS V14.01,2013-07-02 02:52:00,
2013-07-01 22:57:00,74.3,44.9,0.00,SE,141,0.0,0.0,35,0.00,,---,0.00,VWS V14.01,2013-07-02 02:57:00,
2013-07-01 23:02:00,74.5,45.1,0.00,SE,137,0.0,0.0,35,0.00,,---,0.00,VWS V14.01,2013-07-02 03:02:00,
2013-07-01 23:08:00,74.5,45.1,0.00,SE,137,0.0,0.0,35,0.00,,---,0.00,VWS V14.01,2013-07-02 03:08:00,
2013-07-01 23:13:00,74.5,45.1,0.00,SE,137,0.0,0.0,35,0.00,,---,0.00,VWS V14.01,2013-07-02 03:13:00,
2013-07-01 23:18:00,74.5,45.1,0.00,SE,137,0.0,0.0,35,0.00,,---,0.00,VWS V14.01,2013-07-02 03:18:00,
2013-07-01 23:24:00,74.5,45.1,0.00,SE,137,0.0,0.0,35,0.00,,---,0.00,VWS V14.01,2013-07-02 03:24:00,
2013-07-01 23:30:00,74.7,45.2,0.00,SE,137,0.0,0.0,35,0.00,,---,0.00,VWS V14.01,2013-07-02 03:30:00,
2013-07-01 23:35:00,74.5,45.1,0.00,SE,137,0.0,0.0,35,0.00,,---,0.00,VWS V14.01,2013-07-02 03:35:00,
2013-07-01 23:41:00,74.5,45.1,0.00,SE,137,0.0,0.0,35,0.00,,---,0.00,VWS V14.01,2013-07-02 03:41:00,
2013-07-01 23:47:00,74.5,45.8,0.00,SE,137,0.0,0.0,36,0.00,,---,0.00,VWS V14.01,2013-07-02 03:47:00,
2013-07-01 23:53:00,74.5,45.1,0.00,SE,137,0.0,0.0,35,0.00,,---,0.00,VWS V14.01,2013-07-02 03:53:00,
2013-07-01 23:59:00,74.5,45.8,0.00,SE,137,0.0,0.0,36,0.00,,---,0.00,VWS V14.01,2013-07-02 03:59:00,